Regional Weather Roundup
Issued by NWS State College, PA

Home | Current Version | Previous Version | Text Only | Print | Product List | Glossary On
Versions: 1 2 3 4 5 6 7 8 9 10 11 12 13 14 15 16 17 18 19 20 21 22 23 24 25 26 27 28 29 30 31 32 33 34 35 36 37 38 39 40 41 42 43 44 45 46 47 48 49 50
000
ASUS41 KCTP 230703
RWRCTP

REGIONAL WEATHER ROUNDUP
NATIONAL WEATHER SERVICE STATE COLLEGE PA
300 AM EDT TUE MAY 23 2017

Note: "fair" indicates few or no clouds below 12,000 feet with no
significant weather and/or obstructions to visibility.

* = STATION THAT DOES NOT REPORT PRECIPITATION /E.G. RAIN...SNOW...ETC/
    THUNDER OR FOG.

PAZ002>004-007>009-013>016-020>023-029>032-230800-
WESTERN PENNSYLVANIA

CITY           SKY/WX    TMP DP  RH WIND       PRES   REMARKS
ERIE           PTCLDY    54  45  71 S7        29.96F
MEADVILLE      CLOUDY    51  46  83 S5        29.99F
FRANKLIN*      CLOUDY    46  41  81 CALM      30.00F
NEW CASTLE     FAIR      47  46  97 CALM      30.00F
BEAVER COUNTY  NOT AVBL
BUTLER*        PTCLDY    46  45  93 CALM      30.00F
PITTSBURGH INT MOCLDY    49  48  97 CALM      29.99F
PITTSBURGH     CLOUDY    52  47  83 SE3       29.99F
INDIANA*       NOT AVBL
LATROBE        CLOUDY    48  48 100 CALM      30.01F
WASHINGTON CO* CLOUDY    45  43  93 CALM      30.01F
$$

PAZ004>006-010>012-017>019-024>028-033>037-041-042-045-046-049>053-230800-
CENTRAL PENNSYLVANIA

CITY           SKY/WX    TMP DP  RH WIND       PRES   REMARKS
BRADFORD       CLOUDY    40  40 100 CALM      30.00F
DUBOIS         CLOUDY    47  42  83 CALM      30.00F
CLEARFIELD     CLOUDY    44  43  96 N7        30.01F
JOHNSTOWN      CLOUDY    48  44  86 W3        30.00F
ALTOONA        PTCLDY    49  45  86 CALM      30.01S
STATE COLLEGE  CLOUDY    51  45  78 CALM      30.00S
WILLIAMSPORT   FOG       55  55 100 NW6       29.99R VSB 1/2
SELINSGROVE    CLOUDY    50  50 100 CALM      29.99S FOG
FT INDIANTOWN  FOG       51  51 100 CALM      29.95F VSB 1/4
CAPITAL CITY   CLOUDY    54  51  90 CALM      29.95F FOG
HARRISBURG     FOG       56  56 100 CALM      29.95F VSB 1/8
YORK           FOG       55  55 100 W6        29.95F VSB 1/4
$$

PAZ038>040-043-044-047-048-054-055-060>062-067>071-230800-
EASTERN PENNSYLVANIA

CITY           SKY/WX    TMP DP  RH WIND       PRES   REMARKS
SCRANTON       CLOUDY    57  45  64 NE5       29.99F
MOUNT POCONO   CLOUDY    51  47  86 NW10G18   29.96F
ALLENTOWN      CLOUDY    55  54  96 W3        29.94F FOG
QUAKERTOWN*      N/A     55  55 100 CALM      29.95F VSB<1/4
READING        CLOUDY    57  57 100 N5        29.94F FOG
LANCASTER      FOG       55  55 100 NW5       29.95F VSB 1/4
COATESVILLE    CLOUDY    59  57  94 NW8       29.95F
POTTSTOWN      CLOUDY    56  56 100 CALM      29.95F FOG
BLUE BELL      PTCLDY    55  55 100 CALM      29.95S
DOYLESTOWN     CLOUDY    58  57  97 CALM      29.92F
WILLOW GROVE   NOT AVBL
NORTH PHILA    CLOUDY    61  58  90 CALM      29.94F FOG
PHILADELPHIA   CLOUDY    62  59  90 N6        29.93F
$$



USA.gov is the U.S. government's official web portal to all federal, state and local government web resources and services.